Hourly Data Report for October 27, 2013

All times are specified in Local Standard Time (LST). Add 1 hour to adjust for Daylight Saving Time where and when it is observed.

KAMLOOPS A
BRITISH COLUMBIA

50°42'09.000" N
120°26'55.000" W
345.30 m
1163781
71887
YKA

Download Data

Hourly Data (October 2013)
Hourly Data Report for October 27, 2013
Temp Definition
°C
Dew Point Temp Definition
°C
Rel Hum Definition
%
Wind Dir Definition
10's deg

Wind Spd Definition
km/h
Visibility Definition
km
Stn Press Definition
kPa
Hmdx Definition


Wind Chill Definition


Weather Definition


TIME
00:00 Legend Double Dagger 5.6 3.8 88 7 5 48.3 97.70     LegendNANA
01:00 Legend Double Dagger 5.3 4.1 92 30 5 32.2 97.63     Rain Showers
02:00 Legend Double Dagger 5.1 4.2 94 28 7 24.1 97.59     Rain Showers
03:00 Legend Double Dagger 5.7 4.7 93 27 12 19.3 97.52     Rain Showers
04:00 Legend Double Dagger 5.7 4.5 92 24 8 24.1 97.45     Cloudy
05:00 Legend Double Dagger 6.4 4.9 90 29 14 24.1 97.43     Rain Showers
06:00 Legend Double Dagger 8.6 4.8 77 28 26 32.2 97.39     LegendNANA
07:00 Legend Double Dagger 7.2 4.0 80 36 21 32.2 97.48     Rain Showers
08:00 Legend Double Dagger 7.1 4.4 83 17 9 32.2 97.58     Rain
09:00 Legend Double Dagger 7.0 5.2 88 11 4 64.4 97.64     LegendNANA
10:00 Legend Double Dagger 7.9 5.2 83 15 4 64.4 97.68     Mostly Cloudy
11:00 Legend Double Dagger 10.4 4.1 65 28 39 64.4 97.73     LegendNANA
12:00 Legend Double Dagger 11.1 4.1 62 28 39 64.4 97.80     LegendNANA
13:00 Legend Double Dagger 11.3 3.4 58 28 33 64.4 97.85     Mostly Cloudy
14:00 Legend Double Dagger 11.6 2.9 55 27 32 64.4 97.89     LegendNANA
15:00 Legend Double Dagger 11.8 3.1 55 27 33 64.4 97.95     LegendNANA
16:00 Legend Double Dagger 11.1 2.5 55 27 33 64.4 98.01     Mostly Cloudy
17:00 Legend Double Dagger 10.4 1.5 54 29 32 64.4 98.10     LegendNANA
18:00 Legend Double Dagger 9.7 0.4 52 28 29 64.4 98.22     LegendNANA
19:00 Legend Double Dagger 8.6 -0.4 53 27 32 64.4 98.26     Mainly Clear
20:00 Legend Double Dagger 7.9 -1.1 53 28 31 64.4 98.31     LegendNANA
21:00 Legend Double Dagger 7.2 -1.2 55 28 24 64.4 98.34     LegendNANA
22:00 Legend Double Dagger 6.0 -2.1 56 27 21 64.4 98.36     Mainly Clear
23:00 Legend Double Dagger 5.8 -2.5 55 28 22 64.4 98.37     LegendNANA

Notes on Data Quality.

Legend

  • E = Estimated
  • M = Missing
  • NA = Not Available
  • ‡ = Partner data that is not subject to review by the National Climate Archives
Date modified: